ATLAS 5 CENTAUR DEB, 43969

Orbit data source: Space-Track

ATLAS 5 CENTAUR DEB, 43969 is space debris in HEO originally from a launch on Wed, 17 Sep 2014 UTC launched from the Air Force Eastern Test Range (AFETR). Debris objects in space refer to the collection of defunct objects orbiting the Earth. Examples of debris include non-operational satellites, rocket bodies, and fragments generated from explosions, collisions, or faulty payload assembly.

Loading next visibility...
Identifier
43969, 2014-055Y
Orbit
HEO
Country
Flag of USUS
Related business
Flag of USUnited Launch Alliance/Lockheed Martin (US)
Manufacturer
Unknown
Mission
Spacecraft
Bus & Motor
Unknown
Mass
Unknown
Launch date (UTC)
2014-09-17 (12 years ago)
Launch vehicle
Unknown
Launch site
Air Force Eastern Test Range (AFETR)
Object type
Payload
Rocket body
Debris
Shape & HBR
Unknown shape, 1.1 m
Radar Cross Section
RCS unknown

Expand to show TLE details & history
Last TLE update: 6 months ago

TLE from 6 months ago
0 ATLAS 5 CENTAUR DEB
1 43969U 14055Y   26054.84512084 -.00000034  00000-0  00000-0 0  9993
2 43969  19.3984 160.4739 5089053 129.2912 288.0175  1.77735719 29350
Epoch: 2026-02-23T20:16Z
TLE epoch observation values (Epoch: 2026-02-23T20:16:58.440Z)
Latitude
0.00007°
Longitude
62.43805°
Altitude
25,136.983 km
Speed
3.384 km/s
True Right ascension
10h 41m 39s
True Declination
0° 00' 00"
Sunlit
Object was in full shadow at epoch
Visualization orbit readout
Latitude
Unknown
Longitude
Unknown
Altitude
Unknown
Speed
Unknown
Apparent Right ascension
Unknown
Apparent Declination
Unknown
Sunlit
N/A
Visualization observer readout
Local Sidereal Time
21:34:36
Azimuth
Unknown
Elevation
Unknown
Doppler factor
Unknown
Orbital elements
Apogee altitude
37,063.996 km
Perigee altitude
7,760.723 km
Semi-major axis
28,790.497 km
Eccentricity
0.50891
Inclination
19.3984°
RAAN
160.4739°
Arg. of periapsis
129.2912°
True anomaly
230.65666°
Mean anomaly
288.0175°
Eccentric anomaly
259.36064°
Mean motion
0.44429 °/min
Orbital period
810.28 mins
BSTAR
0
Loading maneuver chart data...
Computing Atmospheric mass density...

Documentation

Showing up to 5 results
|